Reflectivity
-20 -20 -15 41 38 19 -9 3 -20 -20 -20 -20 0 -15 8 -15 -6 -20 -20 -20 -20 -20
-20 -20 -20 14 29 25 -17 21 8 -17 -20 -8 6 0 28 -6 21 -20 -20 -20 -20 -20
-3 -14 -20 20 36 41 33 31 13 -5 -15 0 3 16 9 -20 -8 -17 -20 -20 -20 -20
13 23 -20 32 45 43 37 -1 10 -18 20 38 32 49 25 8 -0 16 -20 -20 13 -20
28 20 11 21 44 26 33 28 19 -9 1 33 20 31 20 29 23 18 6 7 15 13
23 4 15 43 37 29 26 41 34 -5 6 30 38 12 11 14 12 -13 -7 -6 -14 -20
30 26 42 43 38 33 31 46 31 14 13 34 31 27 11 -9 -20 -20 -20 -20 -20 -20
23 33 32 35 35 31 29 40 41 33 20 28 7 1 -1 -14 -20 -20 -20 -20 -20 -20
35 30 31 32 27 21 30 37 38 38 33 32 17 -4 -12 -20 -20 -20 -20 -20 -20 -20
27 30 30 26 30 33 39 38 33 26 14 10 8 -16 -20 -20 -20 -20 -20 -20 -20 -20
9 17 15 11 10 11 18 13 21 19 20 23 0 -20 -20 -20 -20 -20 -20 -20 -20 -20
-16 1 8 4 16 16 -12 -16 -2 7 -10 -19 -20 -18 3 -17 -20 -20 -20 -20 -20 -19
-2 -0 10 9 2 3 -6 -0 -12 -14 -9 -1 -19 -16 -18 1 -20 -20 -20 -20 -20 4
-5 -4 2 -4 -10 -13 -20 -20 -17 -7 -20 -1 -12 -17 -1 -7 -20 -20 -20 -20 -20 -20
Wind_Speed
12 9 12 24 16 16 16 16 19 19 19 20 18 14 12 7 6 7 6 6 8 6
14 15 16 12 5 13 17 15 17 19 20 16 15 13 13 10 12 6 6 8 8 8
15 15 17 16 19 19 13 11 10 8 7 8 11 12 11 8 6 7 7 6 8 9
15 16 16 16 15 16 16 18 15 12 11 3 5 5 4 6 9 9 8 8 9 10
13 15 20 19 15 12 16 13 12 12 12 8 11 3 3 5 5 4 5 5 5 7
17 18 20 17 16 16 18 10 14 13 13 14 10 8 8 7 7 6 6 7 9 11
18 17 16 14 20 20 19 20 17 13 12 13 8 15 15 16 14 14 11 8 7 8
15 14 17 17 18 14 17 14 15 15 13 11 11 12 14 14 12 11 13 13 12 12
15 16 11 11 14 18 16 11 10 11 11 9 10 21 19 16 11 11 11 12 13 13
19 16 17 15 17 17 14 8 9 9 11 11 11 21 22 19 10 9 10 12 11 13
16 17 16 17 16 13 11 14 13 15 15 12 10 17 22 24 11 10 11 13 13 15
15 16 16 18 16 17 13 13 13 12 10 14 14 24 27 25 16 13 15 14 14 14
14 15 16 14 17 14 11 11 10 11 14 15 13 23 30 26 12 13 11 13 12 14
14 14 13 13 12 12 13 14 14 14 13 16 18 19 28 29 14 11 10 9 10 10
Wind_Direction
346 312 303 235 197 203 194 189 180 177 186 194 186 178 177 171 193 180 207 216 210 209
9 8 351 342 330 227 179 179 176 179 185 186 172 174 177 179 187 190 205 217 220 217
18 23 13 347 22 309 91 107 100 96 100 155 166 166 177 207 194 204 217 211 210 221
23 24 29 11 353 340 49 69 70 63 55 239 114 118 193 222 232 204 205 209 216 225
3 27 38 25 331 360 21 42 60 64 63 29 26 290 237 225 216 225 262 256 233 226
14 12 41 19 343 26 48 351 47 50 53 46 359 2 336 347 333 309 275 245 239 248
29 17 35 348 3 25 39 10 24 39 55 48 9 30 7 7 352 347 334 321 303 259
34 26 21 9 12 26 43 24 21 20 33 39 53 34 22 3 344 335 326 323 320 314
30 25 25 25 10 22 38 39 42 39 39 30 52 26 14 8 341 329 317 304 299 297
9 18 20 16 28 28 31 10 39 42 51 38 42 26 5 356 332 319 296 289 290 287
9 18 12 20 17 26 25 23 18 23 22 24 34 19 6 358 344 335 322 315 311 297
9 13 17 17 11 17 11 16 25 30 23 27 14 14 8 2 353 350 339 328 307 301
8 21 24 13 21 14 9 19 22 20 22 20 11 11 11 4 349 338 331 322 319 326
13 17 23 24 21 12 13 21 20 18 15 15 9 8 5 1 353 342 318 310 328 334